User: anonymous   Login
Location: Unspecified
(0.0000°N, 0.0000°E)
Time: 08:23:27
(UTC+00:00)
Language:

METEOR-M - Orbit

View from above orbital plane
View from above orbital plane
View from above satellite
View from above satellite

Ground track
Ground track

The orbit data is extracted from the following two-line orbital elements,

1 35865U 09049A   17147.91477261 +.00000005 +00000-0 +20885-4 0  9998
2 35865 098.4230 170.5124 0002162 176.3365 183.7830 14.22110165399078
Epoch (UTC): 27 May 2017 21:57:16
Eccentricity: 0.0002162
inclination: 98.4230°
perigee height: 816 km
apogee height: 820 km
right ascension of ascending node: 170.5124°
argument of perigee: 176.3365°
revolutions per day: 14.22110165
mean anomaly at epoch: 183.7830°
orbit number at epoch: 39907

The dashed part of the orbit path shows where the satellite is in the earth's shadow,  

DLR